User: anonymous   Login
Location: Unspecified
(0.0000°N, 0.0000°E)
Time: 09:48:38
(UTC+00:00)
Language:

Transit 2A - Orbit

View from above orbital plane
View from above orbital plane
View from above satellite
View from above satellite

Ground track
Ground track

The orbit data is extracted from the following two-line orbital elements,

1 00045U 60007A   15182.85452172 -.00000027  00000-0  20390-4 0  9991
2 00045 066.6947 116.6932 0258631 196.4607 162.7982 14.33363539862893
Epoch (UTC): 01 July 2015 20:30:30
Eccentricity: 0.0258631
inclination: 66.6947°
perigee height: 595 km
apogee height: 965 km
right ascension of ascending node: 116.6932°
argument of perigee: 196.4607°
revolutions per day: 14.33363539
mean anomaly at epoch: 162.7982°
orbit number at epoch: 86289

The dashed part of the orbit path shows where the satellite is in the earth's shadow,  

DLR